| time (UTC) | temp F | wind direction | speed MPH | gust MPH | rain 1hr in | rain 24hr in | rain mn in | humidity % | barometer mb |
| 20260505213018 | 65 | 225 | 3.0 | 7.0 | 0.07 | 0.16 | 0.16 | 80 | 1003.5 |
| 20260505212018 | 64 | 225 | 5.0 | 12.0 | 0.07 | 0.16 | 0.16 | 80 | 1003.4 |
| 20260505211018 | 65 | 248 | 4.0 | 12.0 | 0.03 | 0.12 | 0.12 | 79 | 1003.4 |
| 20260505210018 | 67 | 180 | 8.0 | 17.0 | 0.02 | 0.11 | 0.11 | 74 | 1003.3 |
| 20260505205018 | 70 | 180 | 9.0 | 19.0 | 0.02 | 0.11 | 0.11 | 68 | 1003.2 |
| 20260505204038 | 71 | 180 | 6.0 | 12.0 | 0.00 | 0.09 | 0.09 | 64 | 1002.9 |
| 20260505203018 | 71 | 225 | 3.0 | 9.0 | 0.00 | 0.09 | 0.09 | 63 | 1002.6 |
| 20260505202018 | 71 | 225 | 4.0 | 9.0 | 0.00 | 0.09 | 0.09 | 63 | 1002.8 |
| 20260505201017 | 72 | 270 | 3.0 | 7.0 | 0.00 | 0.09 | 0.09 | 63 | 1002.9 |
| 20260505200017 | 71 | 225 | 4.0 | 11.0 | 0.00 | 0.09 | 0.09 | 63 | 1002.9 |
| 20260505195018 | 71 | 225 | 4.0 | 9.0 | 0.00 | 0.09 | 0.09 | 65 | 1003.0 |
| 20260505194017 | 73 | 248 | 5.0 | 10.0 | 0.00 | 0.09 | 0.09 | 62 | 1003.0 |
| 20260505193018 | 71 | 203 | 3.0 | 5.0 | 0.02 | 0.09 | 0.09 | 69 | 1002.9 |
| 20260505192017 | 69 | 180 | 4.0 | 7.0 | 0.03 | 0.09 | 0.09 | 72 | 1003.2 |
| 20260505191017 | 66 | 203 | 3.0 | 6.0 | 0.06 | 0.09 | 0.09 | 77 | 1003.2 |
| 20260505190017 | 65 | 225 | 1.0 | 3.0 | 0.07 | 0.09 | 0.09 | 78 | 1003.3 |
| 20260505185018 | 63 | 248 | 1.0 | 3.0 | 0.07 | 0.09 | 0.09 | 79 | 1003.3 |
| 20260505184017 | 63 | 180 | 4.0 | 10.0 | 0.07 | 0.09 | 0.09 | 78 | 1003.3 |
| 20260505183017 | 64 | 248 | 7.0 | 14.0 | 0.05 | 0.07 | 0.07 | 76 | 1003.9 |
| 20260505182038 | 66 | 248 | 6.0 | 17.0 | 0.04 | 0.06 | 0.06 | 72 | 1003.8 |
| 20260505181017 | 69 | 293 | 8.0 | 15.0 | 0.01 | 0.03 | 0.03 | 66 | 1003.3 |
| 20260505180017 | 71 | 293 | 6.0 | 14.0 | 0.00 | 0.02 | 0.02 | 57 | 1002.8 |
| 20260505175017 | 71 | 248 | 5.0 | 9.0 | 0.00 | 0.02 | 0.02 | 57 | 1002.1 |
| 20260505174017 | 71 | 270 | 7.0 | 15.0 | 0.00 | 0.02 | 0.02 | 57 | 1002.5 |
| 20260505173017 | 73 | 225 | 6.0 | 12.0 | 0.00 | 0.02 | 0.02 | 53 | 1002.4 |
| 20260505172017 | 74 | 225 | 13.0 | 22.0 | 0.00 | 0.02 | 0.02 | 48 | 1002.4 |
| 20260505171017 | 74 | 225 | 11.0 | 19.0 | 0.00 | 0.02 | 0.02 | 48 | 1002.1 |
| 20260505170017 | 75 | 225 | 8.0 | 16.0 | 0.00 | 0.02 | 0.02 | 47 | 1002.2 |
| 20260505165017 | 75 | 203 | 5.0 | 13.0 | 0.00 | 0.02 | 0.02 | 48 | 1002.3 |
| 20260505164017 | 75 | 225 | 8.0 | 14.0 | 0.00 | 0.02 | 0.02 | 48 | 1001.9 |
| 20260505163037 | 75 | 248 | 10.0 | 18.0 | 0.00 | 0.02 | 0.02 | 48 | 1001.9 |
| 20260505162017 | 74 | 225 | 12.0 | 18.0 | 0.00 | 0.02 | 0.02 | 49 | 1001.8 |
| 20260505161017 | 74 | 225 | 7.0 | 16.0 | 0.00 | 0.02 | 0.02 | 49 | 1001.7 |
| 20260505153019 | 75 | 248 | 13.0 | 22.0 | 0.00 | 0.02 | 0.02 | 48 | 1002.3 |
| 20260505152019 | 75 | 203 | 12.0 | 22.0 | 0.00 | 0.02 | 0.02 | 49 | 1002.1 |
| 20260505151019 | 74 | 248 | 10.0 | 16.0 | 0.00 | 0.02 | 0.02 | 49 | 1002.1 |
| 20260505125018 | 71 | 203 | 13.0 | 30.0 | 0.00 | 0.02 | 0.02 | 52 | 1002.1 |
| 20260505124018 | 71 | 180 | 12.0 | 23.0 | 0.00 | 0.02 | 0.02 | 53 | 1002.1 |
| 20260505123018 | 70 | 203 | 13.0 | 26.0 | 0.00 | 0.02 | 0.02 | 54 | 1002.0 |
| 20260505122018 | 70 | 180 | 14.0 | 28.0 | 0.00 | 0.02 | 0.02 | 54 | 1002.1 |
| 20260505121038 | 70 | 203 | 10.0 | 19.0 | 0.00 | 0.02 | 0.02 | 55 | 1002.1 |
| 20260505120018 | 69 | 203 | 14.0 | 27.0 | 0.00 | 0.02 | 0.02 | 56 | 1001.9 |
| 20260505115058 | 68 | 180 | 13.0 | 24.0 | 0.00 | 0.02 | 0.02 | 56 | 1001.9 |
| 20260505114018 | 68 | 158 | 10.0 | 22.0 | 0.00 | 0.02 | 0.02 | 57 | 1001.9 |
| 20260505113018 | 67 | 203 | 8.0 | 16.0 | 0.00 | 0.02 | 0.02 | 58 | 1001.9 |
| 20260505112018 | 66 | 180 | 8.0 | 17.0 | 0.00 | 0.02 | 0.02 | 59 | 1001.8 |
| 20260505111019 | 66 | 180 | 9.0 | 17.0 | 0.00 | 0.02 | 0.02 | 59 | 1001.8 |
| 20260505102018 | 64 | 203 | 9.0 | 18.0 | 0.00 | 0.02 | 0.02 | 63 | 1001.3 |
| 20260505101017 | 64 | 180 | 10.0 | 20.0 | 0.00 | 0.02 | 0.02 | 64 | 1001.2 |
| 20260505100018 | 63 | 180 | 11.0 | 22.0 | 0.00 | 0.02 | 0.02 | 65 | 1001.3 |
| 20260505095058 | 62 | 180 | 11.0 | 19.0 | 0.00 | 0.02 | 0.02 | 66 | 1001.3 |
| 20260505094018 | 61 | 180 | 8.0 | 12.0 | 0.00 | 0.02 | 0.02 | 70 | 1001.3 |
| 20260505093019 | 61 | 180 | 7.0 | 13.0 | 0.00 | 0.02 | 0.02 | 71 | 1001.3 |
| 20260505092018 | 61 | 180 | 6.0 | 11.0 | 0.00 | 0.02 | 0.02 | 73 | 1001.5 |
| 20260505091057 | 61 | 180 | 9.0 | 17.0 | 0.00 | 0.02 | 0.02 | 74 | 1001.4 |
| 20260505090038 | 60 | 180 | 6.0 | 12.0 | 0.02 | 0.02 | 0.02 | 76 | 1001.3 |
| 20260505085017 | 61 | 180 | 6.0 | 12.0 | 0.02 | 0.02 | 0.02 | 76 | 1001.4 |
| 20260505084038 | 61 | 180 | 8.0 | 13.0 | 0.02 | 0.02 | 0.02 | 74 | 1001.5 |
| 20260505083037 | 62 | 180 | 5.0 | 10.0 | 0.02 | 0.02 | 0.02 | 72 | 1001.8 |
| 20260505082037 | 63 | 225 | 5.0 | 14.0 | 0.02 | 0.02 | 0.02 | 69 | 1002.1 |
| 20260505081017 | 64 | 225 | 9.0 | 16.0 | 0.02 | 0.02 | 0.02 | 64 | 1002.2 |
| 20260505080018 | 64 | 203 | 5.0 | 11.0 | 0.00 | 0.00 | 0.00 | 60 | 1002.2 |
| 20260505075017 | 64 | 180 | 6.0 | 11.0 | 0.00 | 0.00 | 0.00 | 60 | 1002.0 |
| 20260505074017 | 64 | 180 | 6.0 | 13.0 | 0.00 | 0.00 | 0.00 | 61 | 1001.9 |
| 20260505073017 | 64 | 180 | 7.0 | 14.0 | 0.00 | 0.00 | 0.00 | 62 | 1001.8 |
| 20260505072017 | 64 | 225 | 6.0 | 15.0 | 0.00 | 0.00 | 0.00 | 62 | 1001.9 |
| 20260505071017 | 64 | 180 | 9.0 | 17.0 | 0.00 | 0.00 | 0.00 | 62 | 1002.0 |
| 20260505070037 | 64 | 180 | 9.0 | 17.0 | 0.00 | 0.00 | 0.00 | 62 | 1001.9 |
| 20260505065017 | 64 | 203 | 9.0 | 16.0 | 0.00 | 0.00 | 0.00 | 62 | 1001.8 |
| 20260505064017 | 64 | 180 | 9.0 | 16.0 | 0.00 | 0.00 | 0.00 | 61 | 1001.8 |
| 20260505063017 | 65 | 225 | 11.0 | 24.0 | 0.00 | 0.00 | 0.00 | 60 | 1001.8 |
| 20260505062017 | 66 | 225 | 12.0 | 25.0 | 0.00 | 0.00 | 0.00 | 58 | 1001.8 |
| 20260505061017 | 67 | 203 | 13.0 | 24.0 | 0.00 | 0.00 | 0.00 | 55 | 1001.9 |
| 20260505060039 | 67 | 203 | 10.0 | 22.0 | 0.00 | 0.00 | 0.00 | 50 | 1001.9 |
| 20260505055019 | 68 | 180 | 8.0 | 18.0 | 0.00 | 0.00 | 0.00 | 49 | 1001.9 |
| 20260505054019 | 68 | 225 | 11.0 | 22.0 | 0.00 | 0.00 | 0.00 | 48 | 1001.9 |
| 20260505053018 | 67 | 203 | 9.0 | 21.0 | 0.00 | 0.00 | 0.00 | 48 | 1001.9 |
| 20260505052019 | 67 | 180 | 6.0 | 12.0 | 0.00 | 0.00 | 0.00 | 48 | 1002.0 |
| 20260505051019 | 67 | 180 | 9.0 | 14.0 | 0.00 | 0.00 | 0.00 | 48 | 1001.9 |
| 20260505041019 | 67 | 203 | 7.0 | 15.0 | 0.00 | 0.00 | 0.00 | 45 | 1001.8 |
| 20260505040018 | 67 | 180 | 7.0 | 16.0 | 0.00 | 0.00 | 0.00 | 45 | 1001.8 |
| 20260505035019 | 67 | 180 | 9.0 | 19.0 | 0.00 | 0.00 | 0.00 | 44 | 1001.7 |
| 20260505034018 | 67 | 180 | 9.0 | 15.0 | 0.00 | 0.00 | 0.00 | 43 | 1001.5 |
| 20260505033039 | 67 | 180 | 9.0 | 17.0 | 0.00 | 0.00 | 0.00 | 43 | 1001.6 |
| 20260505032019 | 68 | 180 | 10.0 | 17.0 | 0.00 | 0.00 | 0.00 | 43 | 1001.8 |
| 20260505031018 | 68 | 180 | 10.0 | 18.0 | 0.00 | 0.00 | 0.00 | 43 | 1001.7 |
| 20260505030018 | 68 | 203 | 10.0 | 16.0 | 0.00 | 0.00 | 0.00 | 43 | 1001.7 |
| 20260505025019 | 68 | 180 | 11.0 | 17.0 | 0.00 | 0.00 | 0.00 | 43 | 1001.8 |
| 20260505024038 | 68 | 225 | 9.0 | 20.0 | 0.00 | 0.00 | 0.00 | 42 | 1001.8 |
| 20260505023018 | 68 | 180 | 11.0 | 21.0 | 0.00 | 0.00 | 0.00 | 43 | 1001.9 |
| 20260505022018 | 66 | 180 | 8.0 | 14.0 | 0.00 | 0.00 | 0.00 | 44 | 1001.8 |
| 20260505021018 | 66 | 180 | 7.0 | 12.0 | 0.00 | 0.00 | 0.00 | 44 | 1001.8 |
| 20260505020018 | 66 | 180 | 8.0 | 13.0 | 0.00 | 0.00 | 0.00 | 44 | 1001.8 |
| 20260505015018 | 65 | 180 | 6.0 | 11.0 | 0.00 | 0.00 | 0.00 | 44 | 1001.9 |
| 20260505014019 | 64 | 180 | 6.0 | 10.0 | 0.00 | 0.00 | 0.00 | 45 | 1001.7 |
| 20260505013018 | 64 | 180 | 5.0 | 7.0 | 0.00 | 0.00 | 0.00 | 47 | 1001.8 |
| 20260505012018 | 65 | 180 | 4.0 | 9.0 | 0.00 | 0.00 | 0.00 | 46 | 1001.9 |
| 20260505011038 | 65 | 180 | 4.0 | 6.0 | 0.00 | 0.00 | 0.00 | 46 | 1001.8 |
| 20260505010018 | 67 | 158 | 4.0 | 6.0 | 0.00 | 0.00 | 0.00 | 43 | 1001.7 |
| 20260505005018 | 68 | 158 | 2.0 | 3.0 | 0.00 | 0.00 | 0.00 | 41 | 1001.8 |
| 20260505004018 | 69 | 158 | 3.0 | 4.0 | 0.00 | 0.00 | 0.00 | 39 | 1001.7 |
| 20260505003018 | 70 | 158 | 2.0 | 3.0 | 0.00 | 0.00 | 0.00 | 37 | 1001.7 |
| 20260505002019 | 71 | 158 | 3.0 | 4.0 | 0.00 | 0.00 | 0.00 | 35 | 1001.6 |
| 20260505001021 | 72 | 158 | 2.0 | 4.0 | 0.00 | 0.00 | 0.00 | 33 | 1001.6 |
| 20260505000018 | 73 | 203 | 3.0 | 4.0 | 0.00 | 0.00 | 0.00 | 32 | 1001.7 |
| 20260504235018 | 74 | 158 | 2.0 | 3.0 | 0.00 | 0.00 | 0.00 | 31 | 1001.5 |
| 20260504234018 | 75 | 203 | 2.0 | 5.0 | 0.00 | 0.00 | 0.00 | 30 | 1001.5 |
| 20260504233017 | 75 | 225 | 3.0 | 11.0 | 0.00 | 0.00 | 0.00 | 30 | 1001.4 |
| 20260504232017 | 76 | 225 | 3.0 | 5.0 | 0.00 | 0.00 | 0.00 | 29 | 1001.4 |
| 20260504231018 | 76 | 225 | 3.0 | 7.0 | 0.00 | 0.00 | 0.00 | 29 | 1001.4 |
| 20260504230038 | 76 | 225 | 3.0 | 9.0 | 0.00 | 0.00 | 0.00 | 28 | 1001.4 |
| 20260504225018 | 76 | 225 | 4.0 | 9.0 | 0.00 | 0.00 | 0.00 | 28 | 1001.5 |
| 20260504224037 | 76 | 248 | 5.0 | 12.0 | 0.00 | 0.00 | 0.00 | 29 | 1001.6 |
| 20260504223017 | 76 | 248 | 7.0 | 16.0 | 0.00 | 0.00 | 0.00 | 29 | 1001.8 |
| 20260504222017 | 76 | 225 | 7.0 | 15.0 | 0.00 | 0.00 | 0.00 | 28 | 1001.8 |
| 20260504221017 | 76 | 225 | 9.0 | 17.0 | 0.00 | 0.00 | 0.00 | 29 | 1001.8 |
| 20260504220017 | 76 | 248 | 7.0 | 13.0 | 0.00 | 0.00 | 0.00 | 30 | 1001.8 |
| 20260504215017 | 76 | 248 | 6.0 | 11.0 | 0.00 | 0.00 | 0.00 | 30 | 1001.8 |
| 20260504214017 | 76 | 225 | 8.0 | 15.0 | 0.00 | 0.00 | 0.00 | 29 | 1001.9 |